Greenville Downtown, SC

2:31 AM EST on February 18, 2018 (GMT -0500)
Greenville Downtown

Weather History for KGMU - March, 2011

Change the Weather History Date:

Monday, March 14, 2011

  Actual Average Record
Temperature  
Mean Temperature 58 °F -  
Max Temperature 66 °F 59 °F 82 °F (2012)
Min Temperature 51 °F 41 °F 30 °F (1993)
Degree Days  
Heating Degree Days 8    
Growing Degree Days 8 (Base 50)    
Moisture  
Dew Point 39 °F    
Average Humidity 52    
Maximum Humidity 74    
Minimum Humidity 38    
Precipitation  
Precipitation 0.00 in - - ()
Sea Level Pressure  
Sea Level Pressure 30.19 in    
Wind  
Wind Speed 6 mph (ENE)    
Max Wind Speed 16 mph    
Max Gust Speed 24 mph    
Visibility 10 miles    
Events      
Averages and records for this station are not official NWS values.
T = Trace of Precipitation, MM = Missing Value Source: NWS Daily Summary

Daily Weather History Graph

Daily Weather History Graph

Search for Another Location

Airport or City:

Trip Planner

Search our weather history database for the weather conditions in past years. The results will help you decide how hot, cold, wet, or windy it might be!

Date:

Astronomy

Mar. 14, 2011 Rise Set
Actual Time 7:41 AM EDT 7:36 PM EDT
Civil Twilight 7:16 AM EDT 8:01 PM EDT
Nautical Twilight 6:47 AM EDT 8:30 PM EDT
Astronomical Twilight 6:17 AM EDT 9:00 PM EDT
Moon 2:05 PM EDT (3/14) 3:49 AM EDT (3/14)
Length of Visible Light 12h 44m
Length of Day
11h 54m
Waxing Gibbous, 68% of the Moon is Illuminated
Mar 14
Waxing Gibbous
Mar 19
Full
Mar 26
Last Quarter
Apr 3
New
Apr 11
First Quarter

Hourly Weather History & Observations

Time (EDT) Temp. Dew Point Humidity Pressure Visibility Wind Dir Wind Speed Gust Speed Precip Events Conditions
12:53 AM 57.0 °F 42.1 °F 57% 30.17 in 10.0 mi Calm Calm - N/A   Clear
1:53 AM 57.9 °F 43.0 °F 58% 30.16 in 10.0 mi Calm Calm - N/A   Clear
2:53 AM 57.0 °F 42.1 °F 57% 30.15 in 10.0 mi Calm Calm - N/A   Clear
3:53 AM 55.0 °F 43.0 °F 64% 30.14 in 10.0 mi Calm Calm - N/A   Clear
4:53 AM 51.1 °F 43.0 °F 74% 30.14 in 10.0 mi ESE 3.5 mph - N/A   Clear
5:53 AM 52.0 °F 43.0 °F 71% 30.16 in 10.0 mi Calm Calm - N/A   Clear
6:53 AM 52.0 °F 43.0 °F 71% 30.17 in 10.0 mi NE 6.9 mph - N/A   Clear
7:53 AM 52.0 °F 42.1 °F 69% 30.18 in 10.0 mi NNE 10.4 mph - N/A   Clear
9:53 AM 55.9 °F 32.0 °F 40% 30.22 in 10.0 mi NE 13.8 mph - N/A   Mostly Cloudy
10:53 AM 57.0 °F 33.1 °F 40% 30.23 in 10.0 mi ENE 13.8 mph 18.4 mph N/A   Overcast
11:53 AM 59.0 °F 35.1 °F 41% 30.24 in 10.0 mi ENE 15.0 mph - N/A   Overcast
12:53 PM 62.1 °F 36.0 °F 38% 30.23 in 10.0 mi NE 12.7 mph - N/A   Scattered Clouds
1:53 PM 62.1 °F 36.0 °F 38% 30.22 in 10.0 mi East 9.2 mph - N/A   Clear
2:53 PM 62.1 °F 37.0 °F 39% 30.19 in 10.0 mi East 10.4 mph - N/A   Partly Cloudy
3:53 PM 64.0 °F 37.9 °F 38% 30.18 in 10.0 mi East 8.1 mph - N/A   Clear
4:53 PM 64.9 °F 39.0 °F 39% 30.17 in 10.0 mi ENE 6.9 mph - N/A   Partly Cloudy
5:53 PM 63.0 °F 39.0 °F 41% 30.15 in 10.0 mi ENE 11.5 mph - N/A   Clear
6:53 PM 60.1 °F 39.0 °F 46% 30.18 in 10.0 mi NE 13.8 mph - N/A   Clear
7:53 PM 55.9 °F 37.9 °F 51% 30.21 in 10.0 mi NE 15.0 mph 19.6 mph N/A   Scattered Clouds
8:53 PM 53.1 °F 37.0 °F 55% 30.22 in 10.0 mi NE 15.0 mph - N/A   Clear
9:53 PM 53.1 °F 37.0 °F 55% 30.24 in 10.0 mi NE 13.8 mph - N/A   Overcast
10:53 PM 52.0 °F 36.0 °F 54% 30.26 in 10.0 mi NE 12.7 mph - N/A   Clear
11:53 PM 52.0 °F 35.1 °F 53% 30.27 in 10.0 mi NE 16.1 mph 24.2 mph N/A   Mostly Cloudy